OneWeb SL0238

operational
NORAD ID: 48784 Int'l Des: 2021-045 Owner: ONEWEBN Country: UK Constellation: oneweb
LEOCIRCULARPOLARONEWEB_TYPE

About OneWeb SL0238

Description loading...

Live Position

Loading 3D Globe...

Upcoming Passes

Altitude History

Altitude vs Time

uPlot chart will show altitude changes over time

Two-Line Element Set

1 48784U 21045T 25353.59036728 .00000228 00000-0 57066-3 0 9990
2 48784 87.9004 295.0073 0001331 81.2404 278.8877 13.15548339220760
Epoch: Dec 19, 2025 • Age: 10 hours

Current Status

Altitude 1214.6 km
Velocity 7.25 km/s
Sub-Earth Point 86.46°N, 6.54°W
Launch Date May 28, 2021
Age 4.5 years
Type internet

Technical Details

Classification Payload
Mass 148.00 kg
Dry Mass 140.00 kg
Total Mass 148.00 kg
Length 1.30 m
Diameter 1.00 m
Span 5.00 m
Shape Trapezoid+2 pan
Manufacturer ONEWUS
Bus Type ARROW
Phase Status In Orbit
Owner/State ONEWEBN/UK

Large Constellations

Loading constellations...